Year,Month,Day,Hour,Minute,Value (Times are PST for windspeed in km/hr)
2008,01,02,00,00,5.60
2008,01,02,00,01,3.90
2008,01,02,00,02,6.40
2008,01,02,00,03,3.90
2008,01,02,00,04,1.40
2008,01,02,00,05,2.40
2008,01,02,00,06,2.30
2008,01,02,00,07,2.10
2008,01,02,00,08,1.80
2008,01,02,00,09,7.30
2008,01,02,00,10,3.10
2008,01,02,00,11,2.90
2008,01,02,00,12,3.00
2008,01,02,00,13,3.00
2008,01,02,00,14,0.80
2008,01,02,00,15,4.40
2008,01,02,00,16,4.70
2008,01,02,00,17,2.10
2008,01,02,00,18,4.20
2008,01,02,00,19,6.00
2008,01,02,00,20,3.60
2008,01,02,00,21,4.40
2008,01,02,00,22,5.30
2008,01,02,00,23,5.80
2008,01,02,00,24,4.70
2008,01,02,00,25,3.60
2008,01,02,00,26,4.70
2008,01,02,00,27,3.60
2008,01,02,00,28,4.20
2008,01,02,00,29,4.80
2008,01,02,00,30,7.30
2008,01,02,00,31,6.90
2008,01,02,00,32,3.00
2008,01,02,00,33,8.70
2008,01,02,00,34,4.40
2008,01,02,00,35,2.90
2008,01,02,00,36,10.40
2008,01,02,00,37,6.10
2008,01,02,00,38,7.10
2008,01,02,00,39,11.10
2008,01,02,00,40,6.20
2008,01,02,00,41,9.20
2008,01,02,00,42,11.00
2008,01,02,00,43,6.70
2008,01,02,00,44,9.80
2008,01,02,00,45,7.40
2008,01,02,00,46,6.90
2008,01,02,00,47,5.10
2008,01,02,00,48,8.70
2008,01,02,00,49,9.60
2008,01,02,00,50,8.90
2008,01,02,00,51,8.00
2008,01,02,00,52,7.10
2008,01,02,00,53,6.80
2008,01,02,00,54,6.70
2008,01,02,00,55,5.40
2008,01,02,00,56,6.90
2008,01,02,00,57,7.40
2008,01,02,00,58,6.20
2008,01,02,00,59,10.30
2008,01,02,01,00,8.60
2008,01,02,01,01,5.20
2008,01,02,01,02,8.60
2008,01,02,01,03,7.80
2008,01,02,01,04,6.50
2008,01,02,01,05,5.60
2008,01,02,01,06,5.80
2008,01,02,01,07,3.80
2008,01,02,01,08,6.80
2008,01,02,01,09,5.40
2008,01,02,01,10,8.90
2008,01,02,01,11,8.30
2008,01,02,01,12,6.60
2008,01,02,01,13,8.00
2008,01,02,01,14,8.80
2008,01,02,01,15,8.90
2008,01,02,01,16,7.30
2008,01,02,01,17,6.40
2008,01,02,01,18,6.60
2008,01,02,01,19,6.50
2008,01,02,01,20,6.50
2008,01,02,01,21,7.70
2008,01,02,01,22,7.10
2008,01,02,01,23,6.90
2008,01,02,01,24,6.50
2008,01,02,01,25,7.10
2008,01,02,01,26,4.70
2008,01,02,01,27,4.00
2008,01,02,01,28,4.00
2008,01,02,01,29,7.70
2008,01,02,01,30,4.10
2008,01,02,01,31,5.50
2008,01,02,01,32,4.70
2008,01,02,01,33,10.00
2008,01,02,01,34,6.70
2008,01,02,01,35,7.50
2008,01,02,01,36,6.40
2008,01,02,01,37,7.70
2008,01,02,01,38,6.10
2008,01,02,01,39,7.90
2008,01,02,01,40,7.90
2008,01,02,01,41,6.70
2008,01,02,01,42,5.70
2008,01,02,01,43,9.90
2008,01,02,01,44,8.70
2008,01,02,01,45,10.20
2008,01,02,01,46,10.60
2008,01,02,01,47,7.10
2008,01,02,01,48,4.20
2008,01,02,01,49,9.70
2008,01,02,01,50,9.60
2008,01,02,01,51,8.00
2008,01,02,01,52,9.00
2008,01,02,01,53,6.70
2008,01,02,01,54,8.30
2008,01,02,01,55,4.00
2008,01,02,01,56,5.10
2008,01,02,01,57,6.70
2008,01,02,01,58,10.70
2008,01,02,01,59,7.70
2008,01,02,02,00,3.30
2008,01,02,02,01,3.70
2008,01,02,02,02,7.60
2008,01,02,02,03,7.90
2008,01,02,02,04,7.20
2008,01,02,02,05,8.20
2008,01,02,02,06,10.60
2008,01,02,02,07,11.90
2008,01,02,02,08,8.10
2008,01,02,02,09,5.20
2008,01,02,02,10,10.00
2008,01,02,02,11,12.10
2008,01,02,02,12,7.40
2008,01,02,02,13,9.20
2008,01,02,02,14,11.50
2008,01,02,02,15,8.70
2008,01,02,02,16,6.30
2008,01,02,02,17,10.00
2008,01,02,02,18,9.20
2008,01,02,02,19,6.90
2008,01,02,02,20,10.20
2008,01,02,02,21,8.40
2008,01,02,02,22,8.90
2008,01,02,02,23,8.00
2008,01,02,02,24,11.20
2008,01,02,02,25,11.00
2008,01,02,02,26,4.00
2008,01,02,02,27,8.20
2008,01,02,02,28,7.20
2008,01,02,02,29,10.30
2008,01,02,02,30,6.80
2008,01,02,02,31,8.00
2008,01,02,02,32,8.60
2008,01,02,02,33,6.50
2008,01,02,02,34,5.40
2008,01,02,02,35,10.00
2008,01,02,02,36,8.60
2008,01,02,02,37,10.80
2008,01,02,02,38,8.80
2008,01,02,02,39,10.60
2008,01,02,02,40,14.60
2008,01,02,02,41,10.30
2008,01,02,02,42,9.10
2008,01,02,02,43,12.50
2008,01,02,02,44,10.60
2008,01,02,02,45,8.50
2008,01,02,02,46,11.70
2008,01,02,02,47,6.10
2008,01,02,02,48,10.20
2008,01,02,02,49,8.60
2008,01,02,02,50,6.40
2008,01,02,02,51,8.40
2008,01,02,02,52,8.90
2008,01,02,02,53,10.50
2008,01,02,02,54,10.40
2008,01,02,02,55,11.70
2008,01,02,02,56,9.50
2008,01,02,02,57,7.10
2008,01,02,02,58,9.70
2008,01,02,02,59,10.00
2008,01,02,03,00,9.20
2008,01,02,03,01,7.80
2008,01,02,03,02,13.50
2008,01,02,03,03,9.70
2008,01,02,03,04,11.40
2008,01,02,03,05,6.60
2008,01,02,03,06,6.60
2008,01,02,03,07,8.30
2008,01,02,03,08,9.00
2008,01,02,03,09,9.80
2008,01,02,03,10,8.30
2008,01,02,03,11,10.60
2008,01,02,03,12,9.80
2008,01,02,03,13,9.00
2008,01,02,03,14,9.40
2008,01,02,03,15,8.00
2008,01,02,03,16,9.50
2008,01,02,03,17,11.30
2008,01,02,03,18,6.70
2008,01,02,03,19,8.10
2008,01,02,03,20,7.60
2008,01,02,03,21,4.10
2008,01,02,03,22,5.40
2008,01,02,03,23,7.80
2008,01,02,03,24,9.30
2008,01,02,03,25,10.20
2008,01,02,03,26,8.80
2008,01,02,03,27,10.70
2008,01,02,03,28,13.50
2008,01,02,03,29,8.10
2008,01,02,03,30,8.90
2008,01,02,03,31,12.00
2008,01,02,03,32,6.40
2008,01,02,03,33,10.20
2008,01,02,03,34,6.80
2008,01,02,03,35,5.30
2008,01,02,03,36,4.00
2008,01,02,03,37,6.50
2008,01,02,03,38,8.60
2008,01,02,03,39,7.00
2008,01,02,03,40,10.10
2008,01,02,03,41,9.20
2008,01,02,03,42,7.90
2008,01,02,03,43,8.60
2008,01,02,03,44,6.80
2008,01,02,03,45,7.10
2008,01,02,03,46,7.00
2008,01,02,03,47,6.40
2008,01,02,03,48,6.40
2008,01,02,03,49,2.40
2008,01,02,03,50,6.80
2008,01,02,03,51,7.80
2008,01,02,03,52,7.40
2008,01,02,03,53,8.10
2008,01,02,03,54,8.00
2008,01,02,03,55,6.30
2008,01,02,03,56,10.50
2008,01,02,03,57,6.20
2008,01,02,03,58,9.20
2008,01,02,03,59,12.20
2008,01,02,04,00,7.50
2008,01,02,04,01,8.30
2008,01,02,04,02,6.80
2008,01,02,04,03,9.60
2008,01,02,04,04,9.70
2008,01,02,04,05,9.60
2008,01,02,04,06,7.30
2008,01,02,04,07,2.90
2008,01,02,04,08,4.40
2008,01,02,04,09,4.30
2008,01,02,04,10,7.60
2008,01,02,04,11,6.00
2008,01,02,04,12,4.70
2008,01,02,04,13,6.60
2008,01,02,04,14,6.40
2008,01,02,04,15,7.90
2008,01,02,04,16,6.70
2008,01,02,04,17,10.30
2008,01,02,04,18,10.80
2008,01,02,04,19,7.20
2008,01,02,04,20,8.80
2008,01,02,04,21,8.10
2008,01,02,04,22,7.60
2008,01,02,04,23,7.40
2008,01,02,04,24,7.80
2008,01,02,04,25,6.00
2008,01,02,04,26,11.50
2008,01,02,04,27,8.80
2008,01,02,04,28,7.20
2008,01,02,04,29,9.50
2008,01,02,04,30,11.20
2008,01,02,04,31,7.40
2008,01,02,04,32,8.00
2008,01,02,04,33,7.80
2008,01,02,04,34,3.20
2008,01,02,04,35,8.70
2008,01,02,04,36,5.90
2008,01,02,04,37,5.50
2008,01,02,04,38,6.40
2008,01,02,04,39,8.80
2008,01,02,04,40,3.70
2008,01,02,04,41,3.90
2008,01,02,04,42,4.60
2008,01,02,04,43,5.20
2008,01,02,04,44,3.10
2008,01,02,04,45,8.10
2008,01,02,04,46,8.80
2008,01,02,04,47,10.80
2008,01,02,04,48,8.60
2008,01,02,04,49,8.30
2008,01,02,04,50,7.70
2008,01,02,04,51,4.10
2008,01,02,04,52,9.50
2008,01,02,04,53,9.00
2008,01,02,04,54,11.70
2008,01,02,04,55,9.90
2008,01,02,04,56,6.70
2008,01,02,04,57,8.30
2008,01,02,04,58,8.60
2008,01,02,04,59,10.90
2008,01,02,05,00,11.60
2008,01,02,05,01,9.80
2008,01,02,05,02,5.80
2008,01,02,05,03,9.60
2008,01,02,05,04,7.30
2008,01,02,05,05,6.30
2008,01,02,05,06,8.20
2008,01,02,05,07,3.50
2008,01,02,05,08,10.80
2008,01,02,05,09,7.50
2008,01,02,05,10,6.20
2008,01,02,05,11,8.80
2008,01,02,05,12,5.30
2008,01,02,05,13,2.70
2008,01,02,05,14,7.60
2008,01,02,05,15,8.90
2008,01,02,05,16,7.60
2008,01,02,05,17,5.10
2008,01,02,05,18,5.50
2008,01,02,05,19,8.90
2008,01,02,05,20,6.50
2008,01,02,05,21,5.10
2008,01,02,05,22,6.00
2008,01,02,05,23,9.40
2008,01,02,05,24,10.00
2008,01,02,05,25,5.70
2008,01,02,05,26,3.20
2008,01,02,05,27,1.10
2008,01,02,05,28,1.70
2008,01,02,05,29,2.70
2008,01,02,05,30,3.20
2008,01,02,05,31,2.70
2008,01,02,05,32,6.40
2008,01,02,05,33,7.40
2008,01,02,05,34,9.00
2008,01,02,05,35,7.60
2008,01,02,05,36,5.70
2008,01,02,05,37,5.50
2008,01,02,05,38,4.70
2008,01,02,05,39,6.90
2008,01,02,05,40,7.70
2008,01,02,05,41,8.30
2008,01,02,05,42,6.60
2008,01,02,05,43,8.00
2008,01,02,05,44,11.90
2008,01,02,05,45,7.10
2008,01,02,05,46,7.20
2008,01,02,05,47,9.20
2008,01,02,05,48,8.00
2008,01,02,05,49,5.70
2008,01,02,05,50,8.60
2008,01,02,05,51,6.90
2008,01,02,05,52,5.80
2008,01,02,05,53,6.70
2008,01,02,05,54,3.00
2008,01,02,05,55,8.90
2008,01,02,05,56,4.90
2008,01,02,05,57,8.70
2008,01,02,05,58,9.60
2008,01,02,05,59,7.20
2008,01,02,06,00,8.80
2008,01,02,06,01,5.70
2008,01,02,06,02,9.60
2008,01,02,06,03,9.80
2008,01,02,06,04,8.90
2008,01,02,06,05,8.90
2008,01,02,06,06,10.20
2008,01,02,06,07,10.00
2008,01,02,06,08,12.90
2008,01,02,06,09,9.10
2008,01,02,06,10,9.80
2008,01,02,06,11,10.50
2008,01,02,06,12,9.30
2008,01,02,06,13,8.60
2008,01,02,06,14,10.90
2008,01,02,06,15,9.80
2008,01,02,06,16,9.70
2008,01,02,06,17,4.60
2008,01,02,06,18,7.80
2008,01,02,06,19,10.30
2008,01,02,06,20,8.80
2008,01,02,06,21,5.80
2008,01,02,06,22,0.30
2008,01,02,06,23,6.20
2008,01,02,06,24,3.50
2008,01,02,06,25,7.40
2008,01,02,06,26,8.90
2008,01,02,06,27,5.30
2008,01,02,06,28,1.50
2008,01,02,06,29,5.40
2008,01,02,06,30,5.50
2008,01,02,06,31,2.30
2008,01,02,06,32,5.90
2008,01,02,06,33,2.00
2008,01,02,06,34,0.40
2008,01,02,06,35,0.70
2008,01,02,06,36,0.30
2008,01,02,06,37,2.20
2008,01,02,06,38,1.50
2008,01,02,06,39,2.40
2008,01,02,06,40,1.10
2008,01,02,06,41,5.40
2008,01,02,06,42,4.90
2008,01,02,06,43,2.90
2008,01,02,06,44,8.30
2008,01,02,06,45,7.50
2008,01,02,06,46,8.60
2008,01,02,06,47,6.70
2008,01,02,06,48,1.10
2008,01,02,06,49,2.70
2008,01,02,06,50,7.10
2008,01,02,06,51,7.80
2008,01,02,06,52,11.50
2008,01,02,06,53,9.20
2008,01,02,06,54,13.30
2008,01,02,06,55,9.80
2008,01,02,06,56,10.00
2008,01,02,06,57,7.70
2008,01,02,06,58,10.60
2008,01,02,06,59,6.40
2008,01,02,07,00,6.20
2008,01,02,07,01,9.60
2008,01,02,07,02,11.80
2008,01,02,07,03,8.50
2008,01,02,07,04,12.70
2008,01,02,07,05,11.10
2008,01,02,07,06,8.10
2008,01,02,07,07,7.20
2008,01,02,07,08,15.40
2008,01,02,07,09,11.10
2008,01,02,07,10,13.10
2008,01,02,07,11,15.30
2008,01,02,07,12,9.70
2008,01,02,07,13,14.20
2008,01,02,07,14,12.00
2008,01,02,07,15,15.80
2008,01,02,07,16,13.90
2008,01,02,07,17,17.30
2008,01,02,07,18,14.70
2008,01,02,07,19,13.00
2008,01,02,07,20,12.60
2008,01,02,07,21,14.70
2008,01,02,07,22,14.10
2008,01,02,07,23,11.80
2008,01,02,07,24,13.80
2008,01,02,07,25,19.90
2008,01,02,07,26,13.60
2008,01,02,07,27,16.20
2008,01,02,07,28,15.80
2008,01,02,07,29,19.90
2008,01,02,07,30,9.60
2008,01,02,07,31,13.60
2008,01,02,07,32,13.00
2008,01,02,07,33,13.10
2008,01,02,07,34,11.10
2008,01,02,07,35,11.90
2008,01,02,07,36,13.40
2008,01,02,07,37,16.80
2008,01,02,07,38,16.70
2008,01,02,07,39,11.60
2008,01,02,07,40,16.20
2008,01,02,07,41,11.10
2008,01,02,07,42,16.90
2008,01,02,07,43,13.60
2008,01,02,07,44,11.60
2008,01,02,07,45,11.50
2008,01,02,07,46,15.60
2008,01,02,07,47,12.30
2008,01,02,07,48,19.00
2008,01,02,07,49,13.00
2008,01,02,07,50,12.90
2008,01,02,07,51,12.30
2008,01,02,07,52,12.70
2008,01,02,07,53,14.20
2008,01,02,07,54,14.00
2008,01,02,07,55,21.50
2008,01,02,07,56,14.60
2008,01,02,07,57,11.30
2008,01,02,07,58,17.20
2008,01,02,07,59,13.30
2008,01,02,08,00,22.70
2008,01,02,08,01,19.60
2008,01,02,08,02,11.80
2008,01,02,08,03,9.30
2008,01,02,08,04,8.00
2008,01,02,08,05,14.40
2008,01,02,08,06,13.10
2008,01,02,08,07,11.10
2008,01,02,08,08,11.60
2008,01,02,08,09,10.60
2008,01,02,08,10,13.00
2008,01,02,08,11,12.10
2008,01,02,08,12,15.50
2008,01,02,08,13,13.40
2008,01,02,08,14,13.20
2008,01,02,08,15,7.30
2008,01,02,08,16,11.90
2008,01,02,08,17,9.50
2008,01,02,08,18,9.30
2008,01,02,08,19,7.10
2008,01,02,08,20,13.80
2008,01,02,08,21,11.60
2008,01,02,08,22,3.80
2008,01,02,08,23,4.10
2008,01,02,08,24,7.30
2008,01,02,08,25,11.30
2008,01,02,08,26,8.30
2008,01,02,08,27,7.90
2008,01,02,08,28,2.40
2008,01,02,08,29,2.80
2008,01,02,08,30,4.20
2008,01,02,08,31,1.50
2008,01,02,08,32,6.90
2008,01,02,08,33,2.90
2008,01,02,08,34,3.10
2008,01,02,08,35,3.70
2008,01,02,08,36,6.60
2008,01,02,08,37,2.70
2008,01,02,08,38,0.80
2008,01,02,08,39,2.20
2008,01,02,08,40,6.70
2008,01,02,08,41,7.00
2008,01,02,08,42,3.80
2008,01,02,08,43,2.20
2008,01,02,08,44,2.70
2008,01,02,08,45,1.20
2008,01,02,08,46,4.90
2008,01,02,08,47,3.40
2008,01,02,08,48,3.40
2008,01,02,08,49,0.90
2008,01,02,08,50,10.10
2008,01,02,08,51,7.50
2008,01,02,08,52,6.70
2008,01,02,08,53,10.60
2008,01,02,08,54,8.10
2008,01,02,08,55,2.90
2008,01,02,08,56,5.50
2008,01,02,08,57,4.20
2008,01,02,08,58,5.50
2008,01,02,08,59,5.60
2008,01,02,09,00,8.50
2008,01,02,09,01,3.30
2008,01,02,09,02,3.00
2008,01,02,09,03,7.50
2008,01,02,09,04,10.00
2008,01,02,09,05,5.30
2008,01,02,09,06,7.80
2008,01,02,09,07,5.50
2008,01,02,09,08,3.80
2008,01,02,09,09,8.40
2008,01,02,09,10,5.20
2008,01,02,09,11,7.60
2008,01,02,09,12,8.50
2008,01,02,09,13,6.70
2008,01,02,09,14,1.20
2008,01,02,09,15,1.30
2008,01,02,09,16,4.00
2008,01,02,09,17,14.00
2008,01,02,09,18,11.80
2008,01,02,09,19,11.30
2008,01,02,09,20,6.20
2008,01,02,09,21,5.50
2008,01,02,09,22,7.40
2008,01,02,09,23,6.60
2008,01,02,09,24,5.20
2008,01,02,09,25,9.70
2008,01,02,09,26,8.10
2008,01,02,09,27,10.40
2008,01,02,09,28,9.90
2008,01,02,09,29,9.20
2008,01,02,09,30,10.30
2008,01,02,09,31,6.80
2008,01,02,09,32,13.90
2008,01,02,09,33,11.00
2008,01,02,09,34,15.50
2008,01,02,09,35,8.40
2008,01,02,09,36,10.90
2008,01,02,09,37,14.00
2008,01,02,09,38,9.00
2008,01,02,09,39,10.20
2008,01,02,09,40,14.10
2008,01,02,09,41,11.20
2008,01,02,09,42,12.20
2008,01,02,09,43,10.10
2008,01,02,09,44,14.30
2008,01,02,09,45,13.00
2008,01,02,09,46,12.80
2008,01,02,09,47,9.70
2008,01,02,09,48,10.20
2008,01,02,09,49,7.50
2008,01,02,09,50,9.90
2008,01,02,09,51,7.70
2008,01,02,09,52,12.80
2008,01,02,09,53,11.10
2008,01,02,09,54,9.20
2008,01,02,09,55,7.50
2008,01,02,09,56,9.20
2008,01,02,09,57,7.60
2008,01,02,09,58,8.90
2008,01,02,09,59,10.60
2008,01,02,10,00,8.40
2008,01,02,10,01,13.00
2008,01,02,10,02,10.50
2008,01,02,10,03,9.00
2008,01,02,10,04,9.60
2008,01,02,10,05,5.80
2008,01,02,10,06,6.20
2008,01,02,10,07,7.80
2008,01,02,10,08,10.20
2008,01,02,10,09,9.40
2008,01,02,10,10,9.80
2008,01,02,10,11,13.10
2008,01,02,10,12,6.00
2008,01,02,10,13,9.20
2008,01,02,10,14,10.40
2008,01,02,10,15,8.00
2008,01,02,10,16,8.40
2008,01,02,10,17,11.00
2008,01,02,10,18,9.00
2008,01,02,10,19,5.40
2008,01,02,10,20,4.10
2008,01,02,10,21,12.60
2008,01,02,10,22,15.10
2008,01,02,10,23,9.80
2008,01,02,10,24,7.40
2008,01,02,10,25,10.20
2008,01,02,10,26,10.60
2008,01,02,10,27,13.50
2008,01,02,10,28,9.80
2008,01,02,10,29,13.10
2008,01,02,10,30,14.30
2008,01,02,10,31,11.20
2008,01,02,10,32,12.70
2008,01,02,10,33,13.80
2008,01,02,10,34,10.60
2008,01,02,10,35,9.00
2008,01,02,10,36,10.20
2008,01,02,10,37,11.70
2008,01,02,10,38,11.10
2008,01,02,10,39,9.10
2008,01,02,10,40,13.50
2008,01,02,10,41,15.70
2008,01,02,10,42,16.80
2008,01,02,10,43,10.50
2008,01,02,10,44,10.80
2008,01,02,10,45,8.80
2008,01,02,10,46,13.80
2008,01,02,10,47,14.10
2008,01,02,10,48,8.00
2008,01,02,10,49,7.80
2008,01,02,10,50,13.80
2008,01,02,10,51,15.80
2008,01,02,10,52,13.90
2008,01,02,10,53,13.30
2008,01,02,10,54,13.00
2008,01,02,10,55,13.30
2008,01,02,10,56,12.20
2008,01,02,10,57,9.20
2008,01,02,10,58,9.60
2008,01,02,10,59,10.20
2008,01,02,11,00,11.30
2008,01,02,11,01,14.20
2008,01,02,11,02,9.40
2008,01,02,11,03,11.10
2008,01,02,11,04,6.70
2008,01,02,11,05,5.90
2008,01,02,11,06,11.40
2008,01,02,11,07,9.30
2008,01,02,11,08,13.20
2008,01,02,11,09,8.80
2008,01,02,11,10,12.20
2008,01,02,11,11,10.10
2008,01,02,11,12,7.20
2008,01,02,11,13,10.20
2008,01,02,11,14,9.20
2008,01,02,11,15,9.70
2008,01,02,11,16,10.20
2008,01,02,11,17,10.50
2008,01,02,11,18,13.00
2008,01,02,11,19,15.90
2008,01,02,11,20,10.10
2008,01,02,11,21,12.00
2008,01,02,11,22,6.30
2008,01,02,11,23,11.60
2008,01,02,11,24,16.00
2008,01,02,11,25,13.00
2008,01,02,11,26,10.30
2008,01,02,11,27,10.80
2008,01,02,11,28,15.40
2008,01,02,11,29,13.60
2008,01,02,11,30,11.40
2008,01,02,11,31,8.40
2008,01,02,11,32,10.90
2008,01,02,11,33,14.00
2008,01,02,11,34,14.00
2008,01,02,11,35,15.30
2008,01,02,11,36,9.90
2008,01,02,11,37,9.30
2008,01,02,11,38,8.10
2008,01,02,11,39,7.50
2008,01,02,11,40,9.50
2008,01,02,11,41,14.70
2008,01,02,11,42,10.80
2008,01,02,11,43,10.40
2008,01,02,11,44,7.10
2008,01,02,11,45,3.40
2008,01,02,11,46,11.60
2008,01,02,11,47,6.50
2008,01,02,11,48,10.20
2008,01,02,11,49,15.70
2008,01,02,11,50,7.90
2008,01,02,11,51,10.50
2008,01,02,11,52,14.30
2008,01,02,11,53,12.00
2008,01,02,11,54,11.40
2008,01,02,11,55,5.40
2008,01,02,11,56,12.10
2008,01,02,11,57,14.20
2008,01,02,11,58,15.10
2008,01,02,11,59,13.70
2008,01,02,12,00,13.40
2008,01,02,12,01,15.80
2008,01,02,12,02,7.10
2008,01,02,12,03,8.60
2008,01,02,12,04,8.80
2008,01,02,12,05,11.60
2008,01,02,12,06,7.50
2008,01,02,12,07,5.50
2008,01,02,12,08,2.90
2008,01,02,12,09,5.30
2008,01,02,12,10,5.70
2008,01,02,12,11,7.50
2008,01,02,12,12,7.50
2008,01,02,12,13,9.10
2008,01,02,12,14,12.00
2008,01,02,12,15,8.70
2008,01,02,12,16,8.30
2008,01,02,12,17,10.50
2008,01,02,12,18,12.40
2008,01,02,12,19,8.70
2008,01,02,12,20,8.80
2008,01,02,12,21,15.50
2008,01,02,12,22,14.20
2008,01,02,12,23,11.10
2008,01,02,12,24,13.40
2008,01,02,12,25,9.90
2008,01,02,12,26,4.50
2008,01,02,12,27,7.90
2008,01,02,12,28,10.30
2008,01,02,12,29,11.40
2008,01,02,12,30,11.30
2008,01,02,12,31,12.10
2008,01,02,12,32,9.60
2008,01,02,12,33,11.60
2008,01,02,12,34,11.90
2008,01,02,12,35,6.60
2008,01,02,12,36,13.00
2008,01,02,12,37,15.00
2008,01,02,12,38,7.30
2008,01,02,12,39,3.10
2008,01,02,12,40,13.50
2008,01,02,12,41,10.80
2008,01,02,12,42,14.70
2008,01,02,12,43,13.00
2008,01,02,12,44,13.10
2008,01,02,12,45,11.80
2008,01,02,12,46,11.80
2008,01,02,12,47,13.40
2008,01,02,12,48,8.10
2008,01,02,12,49,11.40
2008,01,02,12,50,15.30
2008,01,02,12,51,18.60
2008,01,02,12,52,14.10
2008,01,02,12,53,13.90
2008,01,02,12,54,13.10
2008,01,02,12,55,16.10
2008,01,02,12,56,13.00
2008,01,02,12,57,11.90
2008,01,02,12,58,11.80
2008,01,02,12,59,8.40
2008,01,02,13,00,8.90
2008,01,02,13,01,14.40
2008,01,02,13,02,10.30
2008,01,02,13,03,17.50
2008,01,02,13,04,15.60
2008,01,02,13,05,10.50
2008,01,02,13,06,13.40
2008,01,02,13,07,15.20
2008,01,02,13,08,10.20
2008,01,02,13,09,17.80
2008,01,02,13,10,16.80
2008,01,02,13,11,16.90
2008,01,02,13,12,12.80
2008,01,02,13,13,12.80
2008,01,02,13,14,13.70
2008,01,02,13,15,11.30
2008,01,02,13,16,17.50
2008,01,02,13,17,13.70
2008,01,02,13,18,13.50
2008,01,02,13,19,13.30
2008,01,02,13,20,19.70
2008,01,02,13,21,13.90
2008,01,02,13,22,14.80
2008,01,02,13,23,14.00
2008,01,02,13,24,13.00
2008,01,02,13,25,14.00
2008,01,02,13,26,13.10
2008,01,02,13,27,12.30
2008,01,02,13,28,11.50
2008,01,02,13,29,8.90
2008,01,02,13,30,15.60
2008,01,02,13,31,16.80
2008,01,02,13,32,10.00
2008,01,02,13,33,13.60
2008,01,02,13,34,13.90
2008,01,02,13,35,13.50
2008,01,02,13,36,12.40
2008,01,02,13,37,9.10
2008,01,02,13,38,12.50
2008,01,02,13,39,11.60
2008,01,02,13,40,13.10
2008,01,02,13,41,12.40
2008,01,02,13,42,14.70
2008,01,02,13,43,13.30
2008,01,02,13,44,17.40
2008,01,02,13,45,22.70
2008,01,02,13,46,18.60
2008,01,02,13,47,13.40
2008,01,02,13,48,15.10
2008,01,02,13,49,12.70
2008,01,02,13,50,13.00
2008,01,02,13,51,10.50
2008,01,02,13,52,10.70
2008,01,02,13,53,11.50
2008,01,02,13,54,12.30
2008,01,02,13,55,14.70
2008,01,02,13,56,12.90
2008,01,02,13,57,16.40
2008,01,02,13,58,12.70
2008,01,02,13,59,15.80
2008,01,02,14,00,15.20
2008,01,02,14,01,14.20
2008,01,02,14,02,13.80
2008,01,02,14,03,8.10
2008,01,02,14,04,11.90
2008,01,02,14,05,18.60
2008,01,02,14,06,18.50
2008,01,02,14,07,13.70
2008,01,02,14,08,14.00
2008,01,02,14,09,20.20
2008,01,02,14,10,11.50
2008,01,02,14,11,15.80
2008,01,02,14,12,16.50
2008,01,02,14,13,12.60
2008,01,02,14,14,16.80
2008,01,02,14,15,13.10
2008,01,02,14,16,9.60
2008,01,02,14,17,15.60
2008,01,02,14,18,13.00
2008,01,02,14,19,13.90
2008,01,02,14,20,9.70
2008,01,02,14,21,10.50
2008,01,02,14,22,11.90
2008,01,02,14,23,7.20
2008,01,02,14,24,10.80
2008,01,02,14,25,7.30
2008,01,02,14,26,9.40
2008,01,02,14,27,8.00
2008,01,02,14,28,6.80
2008,01,02,14,29,6.90
2008,01,02,14,30,4.20
2008,01,02,14,31,4.40
2008,01,02,14,32,6.40
2008,01,02,14,33,6.30
2008,01,02,14,34,6.40
2008,01,02,14,35,10.50
2008,01,02,14,36,6.40
2008,01,02,14,37,4.20
2008,01,02,14,38,8.40
2008,01,02,14,39,10.40
2008,01,02,14,40,8.80
2008,01,02,14,41,8.90
2008,01,02,14,42,6.70
2008,01,02,14,43,2.90
2008,01,02,14,44,6.70
2008,01,02,14,45,2.00
2008,01,02,14,46,3.20
2008,01,02,14,47,5.60
2008,01,02,14,48,9.60
2008,01,02,14,49,7.00
2008,01,02,14,50,3.50
2008,01,02,14,51,4.70
2008,01,02,14,52,2.80
2008,01,02,14,53,7.50
2008,01,02,14,54,5.20
2008,01,02,14,55,3.80
2008,01,02,14,56,5.00
2008,01,02,14,57,3.70
2008,01,02,14,58,6.00
2008,01,02,14,59,4.60
2008,01,02,15,00,4.40
2008,01,02,15,01,4.40
2008,01,02,15,02,4.10
2008,01,02,15,03,6.30
2008,01,02,15,04,7.70
2008,01,02,15,05,8.10
2008,01,02,15,06,3.70
2008,01,02,15,07,4.70
2008,01,02,15,08,4.30
2008,01,02,15,09,3.80
2008,01,02,15,10,5.50
2008,01,02,15,11,2.60
2008,01,02,15,12,1.90
2008,01,02,15,13,0.20
2008,01,02,15,14,2.60
2008,01,02,15,15,2.20
2008,01,02,15,16,0.50
2008,01,02,15,17,3.70
2008,01,02,15,18,2.80
2008,01,02,15,19,2.60
2008,01,02,15,20,3.00
2008,01,02,15,21,2.00
2008,01,02,15,22,2.70
2008,01,02,15,23,2.10
2008,01,02,15,24,5.00
2008,01,02,15,25,6.40
2008,01,02,15,26,3.60
2008,01,02,15,27,4.30
2008,01,02,15,28,3.70
2008,01,02,15,29,3.60
2008,01,02,15,30,2.20
2008,01,02,15,31,1.40
2008,01,02,15,32,2.70
2008,01,02,15,33,5.50
2008,01,02,15,34,7.00
2008,01,02,15,35,5.30
2008,01,02,15,36,2.60
2008,01,02,15,37,3.30
2008,01,02,15,38,3.50
2008,01,02,15,39,3.10
2008,01,02,15,40,2.20
2008,01,02,15,41,5.40
2008,01,02,15,42,5.50
2008,01,02,15,43,3.50
2008,01,02,15,44,6.60
2008,01,02,15,45,6.10
2008,01,02,15,46,5.20
2008,01,02,15,47,9.50
2008,01,02,15,48,7.20
2008,01,02,15,49,8.20
2008,01,02,15,50,6.10
2008,01,02,15,51,4.30
2008,01,02,15,52,6.20
2008,01,02,15,53,5.00
2008,01,02,15,54,2.70
2008,01,02,15,55,4.20
2008,01,02,15,56,2.20
2008,01,02,15,57,3.60
2008,01,02,15,58,0.40
2008,01,02,15,59,0.10
2008,01,02,16,00,3.10
2008,01,02,16,01,2.60
2008,01,02,16,02,1.80
2008,01,02,16,03,2.90
2008,01,02,16,04,2.10
2008,01,02,16,05,2.40
2008,01,02,16,06,5.80
2008,01,02,16,07,5.50
2008,01,02,16,08,2.70
2008,01,02,16,09,4.30
2008,01,02,16,10,5.00
2008,01,02,16,11,3.80
2008,01,02,16,12,10.40
2008,01,02,16,13,10.30
2008,01,02,16,14,8.40
2008,01,02,16,15,6.00
2008,01,02,16,16,8.70
2008,01,02,16,17,6.40
2008,01,02,16,18,5.90
2008,01,02,16,19,4.90
2008,01,02,16,20,2.00
2008,01,02,16,21,4.40
2008,01,02,16,22,6.40
2008,01,02,16,23,4.10
2008,01,02,16,24,4.90
2008,01,02,16,25,4.60
2008,01,02,16,26,2.90
2008,01,02,16,27,2.00
2008,01,02,16,28,3.10
2008,01,02,16,29,3.70
2008,01,02,16,30,4.60
2008,01,02,16,31,5.70
2008,01,02,16,32,8.00
2008,01,02,16,33,3.50
2008,01,02,16,34,4.60
2008,01,02,16,35,6.50
2008,01,02,16,36,7.10
2008,01,02,16,37,2.20
2008,01,02,16,38,2.10
2008,01,02,16,39,4.50
2008,01,02,16,40,4.50
2008,01,02,16,41,2.40
2008,01,02,16,42,6.80
2008,01,02,16,43,4.20
2008,01,02,16,44,5.10
2008,01,02,16,45,3.60
2008,01,02,16,46,4.80
2008,01,02,16,47,3.80
2008,01,02,16,48,4.20
2008,01,02,16,49,5.70
2008,01,02,16,50,7.70
2008,01,02,16,51,8.40
2008,01,02,16,52,8.10
2008,01,02,16,53,5.10
2008,01,02,16,54,6.60
2008,01,02,16,55,7.00
2008,01,02,16,56,11.10
2008,01,02,16,57,9.10
2008,01,02,16,58,8.00
2008,01,02,16,59,9.40
2008,01,02,17,00,6.40
2008,01,02,17,01,5.50
2008,01,02,17,02,7.20
2008,01,02,17,03,5.80
2008,01,02,17,04,5.50
2008,01,02,17,05,6.40
2008,01,02,17,06,6.60
2008,01,02,17,07,5.10
2008,01,02,17,08,3.90
2008,01,02,17,09,4.10
2008,01,02,17,10,10.60
2008,01,02,17,11,5.50
2008,01,02,17,12,2.80
2008,01,02,17,13,5.90
2008,01,02,17,14,7.00
2008,01,02,17,15,3.80
2008,01,02,17,16,3.10
2008,01,02,17,17,4.70
2008,01,02,17,18,2.10
2008,01,02,17,19,1.00
2008,01,02,17,20,2.60
2008,01,02,17,21,2.00
2008,01,02,17,22,2.70
2008,01,02,17,23,6.30
2008,01,02,17,24,3.60
2008,01,02,17,25,4.80
2008,01,02,17,26,3.20
2008,01,02,17,27,4.70
2008,01,02,17,28,3.10
2008,01,02,17,29,3.10
2008,01,02,17,30,3.10
2008,01,02,17,31,3.80
2008,01,02,17,32,2.40
2008,01,02,17,33,3.50
2008,01,02,17,34,0.40
2008,01,02,17,35,4.10
2008,01,02,17,36,3.60
2008,01,02,17,37,5.90
2008,01,02,17,38,3.40
2008,01,02,17,39,3.70
2008,01,02,17,40,7.10
2008,01,02,17,41,6.60
2008,01,02,17,42,7.30
2008,01,02,17,43,6.50
2008,01,02,17,44,4.30
2008,01,02,17,45,7.70
2008,01,02,17,46,5.90
2008,01,02,17,47,4.70
2008,01,02,17,48,5.80
2008,01,02,17,49,4.70
2008,01,02,17,50,5.90